"2009-10-10 00:00:00",1313566,7.425,51.47,6.942,1.246,8.3,102.3721,5.353,6.45,54.38,0,110,13.41,6.12,13.5
"2009-10-10 00:00:30",1313567,9.03,52.85,4.555,0.717,10.81,102.3721,5.353,6.718,54.64,0,110,13.41,6.12,14.8
"2009-10-10 00:01:00",1313568,8.45,55.72,5.421,1.103,10.46,102.3597,5.322,6.692,54.71,0,110,13.41,6.09,17.7
"2009-10-10 00:01:30",1313569,8.83,54.14,5.08,0.946,10.06,102.339,5.269,6.679,54.81,0,110,13.41,6.04,16.1
"2009-10-10 00:02:00",1313570,8.86,55.35,5.672,1.073,9.92,102.3385,5.268,6.679,54.89,0,110,13.41,6.04,17.3
"2009-10-10 00:02:30",1313571,7.779,50.1,6.807,1.151,8.21,102.3382,5.267,6.517,54.8,0,110,13.41,6.04,12.1
"2009-10-10 00:03:00",1313572,8.33,49.76,5.929,1.236,8.11,102.3325,5.252,6.492,54.77,0,110,13.41,6.02,11.8
"2009-10-10 00:03:30",1313573,7.963,53.4,6.963,1.223,8.15,102.3143,5.206,6.432,54.75,0,110,13.41,5.98,15.4
"2009-10-10 00:04:00",1313574,8.64,57.94,4.83,0.969,10.28,102.3092,5.193,6.541,54.95,0,110,13.41,5.96,19.9
"2009-10-10 00:04:30",1313575,8.69,57.25,5.305,0.646,10.88,102.315,5.208,6.602,55.1,0,110,13.41,5.98,19.2
"2009-10-10 00:05:00",1313576,7.302,52.47,6.146,1.295,9.04,102.3171,5.213,6.561,55.06,0,109.9,13.41,5.98,14.5
"2009-10-10 00:05:30",1313577,7.648,51.53,7.999,1.227,8.77,102.2945,5.155,6.465,55.12,0,109.9,13.41,5.93,13.5
"2009-10-10 00:06:00",1313578,7.34,49.95,6.158,1.396,7.635,102.2906,5.145,6.259,54.95,0,109.9,13.41,5.92,12.0
"2009-10-10 00:06:30",1313579,8.2,50.29,6.141,1.12,8.96,102.2944,5.155,6.393,55.14,0,109.9,13.41,5.93,12.3
"2009-10-10 00:07:00",1313580,8.29,51.96,6.279,1.091,9.77,102.3005,5.17,6.467,55.23,0,109.9,13.42,5.94,14.0
"2009-10-10 00:07:30",1313581,8.8,54.51,5.226,0.772,10.24,102.2954,5.158,6.455,55.25,0,109.9,13.42,5.93,16.5
"2009-10-10 00:08:00",1313582,8.62,52.22,5.211,1.111,9.84,102.2726,5.099,6.47,55.21,0,109.9,13.42,5.87,14.2
"2009-10-10 00:08:30",1313583,7.536,44.66,6.21,1.212,8.86,102.2706,5.094,6.341,55.14,0,109.9,13.43,5.86,6.7
"2009-10-10 00:09:00",1313584,6.563,43.64,7.132,1.261,6.758,102.2712,5.096,6.151,55.32,0,109.9,13.43,5.87,5.6
"2009-10-10 00:09:30",1313585,6.374,41.64,7.906,1.369,7.999,102.2596,5.066,6.362,55.77,0,109.9,13.43,5.84,3.6
"2009-10-10 00:10:00",1313586,7.766,49.18,5.716,1.152,9.41,102.2378,5.011,6.312,55.8,0,109.9,13.43,5.78,11.2
"2009-10-10 00:10:30",1313587,6.996,40.75,5.84,1.015,9.24,102.2373,5.009,6.299,55.98,0,109.9,13.43,5.78,2.8
"2009-10-10 00:11:00",1313588,8.92,46.2,4.019,1.066,9.9,102.2282,4.986,6.34,56.66,0,109.9,13.43,5.76,8.2
"2009-10-10 00:11:30",1313589,9.34,49.39,5.061,1.025,8.78,102.2034,4.923,6.176,56.78,0,109.9,13.43,5.69,11.4
"2009-10-10 00:12:00",1313590,9.3,47.09,6.088,1.139,8.23,102.1949,4.901,6.163,56.93,0,109.9,13.43,5.67,9.1
"2009-10-10 00:12:30",1313591,8.11,44.79,6.469,1.308,7.968,102.1695,4.836,6.179,57.03,0,109.9,13.43,5.60,6.8
"2009-10-10 00:13:00",1313592,9.97,50.79,3.948,0.724,10.14,102.1528,4.793,6.204,57.14,0,109.9,13.43,5.56,12.8
"2009-10-10 00:13:30",1313593,9.19,51.13,6.337,1.171,9.18,102.1356,4.749,6.096,57.15,0,109.9,13.43,5.52,13.1
"2009-10-10 00:14:00",1313594,9.02,55.8,6.1,1.123,9.44,102.1336,4.744,6.202,57.11,0,109.9,13.43,5.51,17.8
"2009-10-10 00:14:30",1313595,9.76,52.67,6.123,1.016,9.2,102.1048,4.671,6.016,57.26,0,109.9,13.43,5.44,14.7
"2009-10-10 00:15:00",1313596,9.81,48.87,6.381,1.148,8.16,102.1017,4.663,6.022,57.6,0,109.9,13.43,5.43,10.9
"2009-10-10 00:15:30",1313597,10.46,49.81,4.539,1.077,8.93,102.078,4.602,5.983,57.88,0,109.9,13.43,5.37,11.8
"2009-10-10 00:16:00",1313598,10.95,47.64,5.088,0.984,9.52,102.0604,4.558,5.998,58.26,0,109.9,13.43,5.33,9.6
"2009-10-10 00:16:30",1313599,10.81,45.44,4.955,1.037,9.25,102.0328,4.487,5.972,58.43,0,109.9,13.43,5.25,7.4
"2009-10-10 00:17:00",1313600,11.4,46.31,4.192,0.886,9.37,102.0051,4.416,5.913,58.37,0,109.9,13.43,5.18,8.3
"2009-10-10 00:17:30",1313601,11.3,46.83,3.909,0.745,9.38,101.9749,4.339,5.875,58.43,0,109.9,13.43,5.11,8.8
"2009-10-10 00:18:00",1313602,11.88,47.75,3.349,0.548,9.6,101.949,4.273,5.8,58.6,0,109.9,13.43,5.04,9.8
"2009-10-10 00:18:30",1313603,11.42,48,1.827,0.747,9.15,101.9247,4.211,5.735,58.91,0,109.9,13.43,4.98,10.0
"2009-10-10 00:19:00",1313604,11.16,47.1,3.925,0.597,9.43,101.8993,4.146,5.704,59.11,0,109.9,13.43,4.91,9.1
"2009-10-10 00:19:30",1313605,11.02,48.5,3.001,0.8,9.22,101.875,4.084,5.632,59.32,0,109.9,13.43,4.85,10.5
"2009-10-10 00:20:00",1313606,10.85,48.61,3.875,0.798,9.21,101.8499,4.02,5.569,59.76,0,109.9,13.43,4.79,10.6
"2009-10-10 00:20:30",1313607,10.92,47.81,3.292,0.529,9.04,101.8403,3.996,5.519,60.12,0,109.9,13.43,4.76,9.8
"2009-10-10 00:21:00",1313608,11.2,47.83,3.489,0.787,9.05,101.8173,3.937,5.47,60.15,0,109.9,13.43,4.70,9.8
"2009-10-10 00:21:30",1313609,11.81,48.55,2.011,0.891,8.71,101.8021,3.898,5.407,60.09,0,109.9,13.43,4.66,10.5
"2009-10-10 00:22:00",1313610,11.68,48.68,2.421,0.83,8.9,101.7883,3.863,5.331,60.13,0,109.9,13.43,4.63,10.7
"2009-10-10 00:22:30",1313611,12.41,48.71,2.421,0.679,8.73,101.7607,3.792,5.285,60.29,0,109.9,13.43,4.56,10.7
"2009-10-10 00:23:00",1313612,12,46.61,2.968,0.926,8.81,101.7451,3.753,5.244,60.56,0,109.9,13.43,4.52,8.6
"2009-10-10 00:23:30",1313613,11.64,46.24,3.778,0.569,9.25,101.728,3.709,5.188,60.84,0,109.9,13.44,4.47,8.2
"2009-10-10 00:24:00",1313614,12.27,48.66,2.314,0.79,9.14,101.7034,3.646,5.128,60.84,0,109.9,13.44,4.41,10.7
"2009-10-10 00:24:30",1313615,12.11,51.49,3.394,0.628,9.04,101.6944,3.623,5.062,60.97,0,109.9,13.44,4.39,13.5
"2009-10-10 00:25:00",1313616,12.24,52.84,2.651,0.805,8.98,101.6669,3.553,5.024,61.2,0,109.9,13.44,4.32,14.8
"2009-10-10 00:25:30",1313617,12.53,55.25,2.666,0.781,9.07,101.6616,3.539,4.985,61.31,0,109.9,13.44,4.30,17.2
"2009-10-10 00:26:00",1313618,12.75,55.28,3.466,0.689,9.33,101.6568,3.527,4.938,61.37,0,109.9,13.44,4.29,17.3
"2009-10-10 00:26:30",1313619,12.83,55.54,3.021,0.714,9.13,101.6316,3.463,4.91,61.54,0,109.8,13.44,4.23,17.5
"2009-10-10 00:27:00",1313620,12.62,56.04,3.494,0.686,9.36,101.6277,3.453,4.884,61.81,0,109.8,13.44,4.22,18.0
"2009-10-10 00:27:30",1313621,12.4,56.18,2.034,0.738,9.27,101.6277,3.453,4.842,61.61,0,109.8,13.44,4.22,18.2
"2009-10-10 00:28:00",1313622,12.75,55.9,2.724,0.804,9.39,101.6277,3.453,4.813,61.62,0,109.8,13.45,4.22,17.9
"2009-10-10 00:28:30",1313623,13.05,55.78,2.654,0.692,9.21,101.6248,3.445,4.804,61.74,0,109.8,13.45,4.21,17.8
"2009-10-10 00:29:00",1313624,13.11,55.05,4.343,0.709,9.26,101.6045,3.393,4.779,61.91,0,109.8,13.45,4.16,17.0
"2009-10-10 00:29:30",1313625,13.71,55.18,3.51,0.744,9.28,101.5938,3.366,4.756,61.92,0,109.8,13.45,4.13,17.2
"2009-10-10 00:30:00",1313626,13.23,52.92,3.543,0.647,9.34,101.5938,3.366,4.734,62.17,0,109.8,13.45,4.13,14.9
"2009-10-10 00:30:30",1313627,13,54.25,3.723,0.736,9.3,101.5938,3.366,4.707,62.19,0,109.8,13.45,4.13,16.2
"2009-10-10 00:31:00",1313628,12.76,54.33,2.856,0.807,9.3,101.5938,3.366,4.719,62.5,0,109.8,13.45,4.13,16.3
"2009-10-10 00:31:30",1313629,13.06,55.12,3.599,0.68,9.17,101.5938,3.366,4.682,62.55,0,109.8,13.45,4.13,17.1
"2009-10-10 00:32:00",1313630,12.98,54.17,2.367,0.854,9.25,101.5907,3.358,4.662,62.57,0,109.8,13.45,4.12,16.2
"2009-10-10 00:32:30",1313631,12.97,53.36,3.384,0.665,9.06,101.5788,3.328,4.657,62.67,0,109.8,13.45,4.09,15.4
"2009-10-10 00:33:00",1313632,13.35,55.83,2.616,0.807,9.25,101.5641,3.29,4.657,62.67,0,109.8,13.45,4.05,17.8
"2009-10-10 00:33:30",1313633,12.87,54.45,3.457,0.91,9.21,101.5598,3.28,4.632,62.67,0,109.8,13.45,4.04,16.5
"2009-10-10 00:34:00",1313634,12.94,54.35,3.484,0.755,9.32,101.5598,3.28,4.611,62.8,0,109.8,13.45,4.04,16.3
"2009-10-10 00:34:30",1313635,13.14,53.41,3.385,0.687,9.14,101.5601,3.28,4.601,62.96,0,109.8,13.45,4.04,15.4
"2009-10-10 00:35:00",1313636,13.05,54.79,3.56,0.998,9.26,101.5613,3.283,4.595,63.13,0,109.8,13.45,4.05,16.8
"2009-10-10 00:35:30",1313637,13.11,54.17,3.556,0.797,9.2,101.5551,3.267,4.581,63.19,0,109.8,13.45,4.03,16.2
"2009-10-10 00:36:00",1313638,12.85,53.26,3.687,0.712,9.17,101.5393,3.227,4.571,63.25,0,109.8,13.45,3.99,15.3
"2009-10-10 00:36:30",1313639,13.22,55.05,3.305,0.576,9.21,101.5351,3.216,4.573,63.38,0,109.8,13.45,3.98,17.0
"2009-10-10 00:37:00",1313640,13.14,55.04,4.275,0.821,9.34,101.5377,3.223,4.569,63.4,0,109.8,13.45,3.99,17.0
"2009-10-10 00:37:30",1313641,13.49,55.24,4.234,0.85,9.14,101.5434,3.238,4.522,63.49,0,109.8,13.45,4.00,17.2
"2009-10-10 00:38:00",1313642,13.82,55.57,3.262,0.752,9.28,101.5449,3.241,4.511,63.39,0,109.8,13.45,4.00,17.6
"2009-10-10 00:38:30",1313643,13.62,55.26,4.844,0.599,9.43,101.539,3.226,4.509,63.32,0,109.8,13.45,3.99,17.3
"2009-10-10 00:39:00",1313644,13.52,53.38,3.361,0.955,9.3,101.5308,3.205,4.504,63.48,0,109.8,13.45,3.97,15.4
"2009-10-10 00:39:30",1313645,13.59,54.07,4.359,0.701,9.32,101.5238,3.188,4.481,63.32,0,109.8,13.46,3.95,16.1
"2009-10-10 00:40:00",1313646,13.92,54.29,3.611,0.768,9.44,101.5242,3.188,4.453,63.36,0,109.8,13.46,3.95,16.3
"2009-10-10 00:40:30",1313647,14.04,54.82,3.993,0.636,9.4,101.5253,3.191,4.444,63.35,0,109.8,13.46,3.95,16.8
"2009-10-10 00:41:00",1313648,13.94,56.13,3.817,0.648,9.59,101.525,3.191,4.451,63.26,0,109.8,13.46,3.95,18.1
"2009-10-10 00:41:30",1313649,14.07,54.54,4.648,0.661,9.42,101.5259,3.193,4.447,63.36,0,109.8,13.46,3.96,16.5
"2009-10-10 00:42:00",1313650,14.04,57.19,3.408,0.818,9.55,101.5225,3.184,4.421,63.5,0,109.8,13.46,3.95,19.2
"2009-10-10 00:42:30",1313651,13.63,53.88,3.496,0.844,9.42,101.5115,3.156,4.399,63.68,0,109.7,13.46,3.92,15.9
"2009-10-10 00:43:00",1313652,13.95,54.29,3.621,0.764,9.48,101.4954,3.115,4.407,63.6,0,109.8,13.46,3.88,16.3
"2009-10-10 00:43:30",1313653,14.11,56,3.243,0.711,9.49,101.4925,3.108,4.391,63.54,0,109.8,13.46,3.87,18.0
"2009-10-10 00:44:00",1313654,14.24,54.38,3.278,0.762,9.54,101.4925,3.108,4.385,63.55,0,109.8,13.46,3.87,16.4
"2009-10-10 00:44:30",1313655,13.94,56.07,3.685,0.593,9.56,101.4925,3.108,4.379,63.62,0,109.7,13.46,3.87,18.1
"2009-10-10 00:45:00",1313656,13.67,56.46,4.029,0.753,9.61,101.4925,3.108,4.388,63.57,0,109.8,13.46,3.87,18.5
"2009-10-10 00:45:30",1313657,14.19,56.9,3.182,0.775,9.42,101.4925,3.108,4.36,63.62,0,109.8,13.46,3.87,18.9
"2009-10-10 00:46:00",1313658,13.66,56.61,3.39,0.785,9.46,101.4925,3.108,4.339,63.64,0,109.8,13.46,3.87,18.6
"2009-10-10 00:46:30",1313659,13.96,55.47,3.563,0.582,9.39,101.4925,3.108,4.339,63.64,0,109.8,13.46,3.87,17.5
"2009-10-10 00:47:00",1313660,13.87,55.08,3.861,0.647,9.39,101.4903,3.102,4.352,63.69,0,109.8,13.46,3.86,17.1
"2009-10-10 00:47:30",1313661,13.85,55.56,3.104,0.832,9.36,101.4812,3.079,4.333,63.67,0,109.8,13.46,3.84,17.6
"2009-10-10 00:48:00",1313662,13.64,58.17,5.793,0.989,9.45,101.462,3.03,4.329,63.68,0,109.8,13.46,3.79,20.2
"2009-10-10 00:48:30",1313663,12.59,54.04,5.744,0.996,9.24,101.4586,3.021,4.327,64.07,0,109.7,13.46,3.78,16.0
"2009-10-10 00:49:00",1313664,13.33,60.12,3.362,0.716,9.28,101.4586,3.021,4.316,63.93,0,109.7,13.46,3.78,22.1
"2009-10-10 00:49:30",1313665,13.63,60.22,3.41,0.733,9.46,101.4586,3.021,4.306,63.82,0,109.7,13.47,3.78,22.2
"2009-10-10 00:50:00",1313666,13.42,58.06,3.853,0.829,9.15,101.4586,3.021,4.285,64.13,0,109.7,13.46,3.78,20.1
"2009-10-10 00:50:30",1313667,14.11,61.06,3.746,0.583,9.29,101.458,3.02,4.28,64.13,0,109.7,13.46,3.78,23.1
"2009-10-10 00:51:00",1313668,13.75,58.78,5.216,0.913,9.31,101.4513,3.002,4.297,64.3,0,109.7,13.46,3.76,20.8
"2009-10-10 00:51:30",1313669,13.69,64.43,3.636,0.778,9.32,101.4343,2.959,4.262,64.36,0,109.7,13.46,3.72,26.4
"2009-10-10 00:52:00",1313670,13.87,63.75,3.634,0.775,9.33,101.425,2.935,4.262,64.46,0,109.7,13.46,3.70,25.8
"2009-10-10 00:52:30",1313671,13.76,63.4,3.508,0.64,9.25,101.4247,2.935,4.243,64.56,0,109.7,13.46,3.70,25.4
"2009-10-10 00:53:00",1313672,13.75,62.27,5.465,0.541,9.18,101.4247,2.935,4.26,64.64,0,109.7,13.46,3.70,24.3
"2009-10-10 00:53:30",1313673,14.21,65.94,3.83,0.705,9.35,101.4247,2.935,4.247,64.69,0,109.7,13.46,3.70,27.9
"2009-10-10 00:54:00",1313674,14.06,65.74,3.663,0.742,9.26,101.425,2.935,4.22,64.5,0,109.7,13.46,3.70,27.7
"2009-10-10 00:54:30",1313675,14.38,64.11,3.951,0.609,9.19,101.4253,2.936,4.219,64.42,0,109.7,13.46,3.70,26.1
"2009-10-10 00:55:00",1313676,14.3,65,3.913,0.702,9.27,101.425,2.935,4.224,64.43,0,109.7,13.46,3.70,27.0
"2009-10-10 00:55:30",1313677,14.48,64.77,3.096,0.858,9.19,101.4261,2.938,4.225,64.2,0,109.7,13.47,3.70,26.8
"2009-10-10 00:56:00",1313678,14.91,67.59,2.77,0.747,9.42,101.4258,2.937,4.213,63.94,0,109.7,13.47,3.70,29.6
"2009-10-10 00:56:30",1313679,14.89,65.95,3.862,0.524,9.39,101.427,2.94,4.215,63.35,0,109.7,13.47,3.70,27.9
"2009-10-10 00:57:00",1313680,14.39,65.85,4.401,0.822,9.3,101.4284,2.944,4.208,63.5,0,109.7,13.47,3.71,27.8
"2009-10-10 00:57:30",1313681,14.65,65.23,3.663,0.74,9.27,101.431,2.951,4.196,63.55,0,109.7,13.47,3.71,27.2
"2009-10-10 00:58:00",1313682,14.97,62.76,3.92,1.074,9.37,101.4316,2.952,4.196,63.69,0,109.7,13.47,3.71,24.8
"2009-10-10 00:58:30",1313683,14.4,61.8,3.007,0.749,9.18,101.4327,2.955,4.177,64.11,0,109.7,13.47,3.72,23.8
"2009-10-10 00:59:00",1313684,14.8,64.92,4.949,1.361,8.99,101.4171,2.915,4.194,64.48,0,109.7,13.47,3.68,26.9
"2009-10-10 00:59:30",1313685,14.29,70.28,4.266,0.926,8.89,101.4008,2.874,4.188,64.82,0,109.7,13.47,3.64,32.3
"2009-10-10 01:00:00",1313686,14.29,68.9,4.221,0.644,8.96,101.4002,2.872,4.171,64.79,0,109.7,13.47,3.63,30.9
"2009-10-10 01:00:30",1313687,14.92,63.08,4.866,1.425,8.58,101.381,2.823,4.144,64.9,0,109.7,13.47,3.58,25.1
"2009-10-10 01:01:00",1313688,13.41,66.8,4.23,0.943,8.66,101.37,2.795,4.139,65.02,0,109.7,13.47,3.56,28.8
"2009-10-10 01:01:30",1313689,13.85,67.85,4.107,0.813,8.56,101.35,2.744,4.102,64.86,0,109.7,13.47,3.51,29.8
"2009-10-10 01:02:00",1313690,13.54,65.82,3.217,0.704,8.41,101.3359,2.708,4.037,64.54,0,109.7,13.47,3.47,27.8
"2009-10-10 01:02:30",1313691,14.2,67.49,2.39,0.624,8.37,101.3105,2.643,4.015,64.28,0,109.7,13.48,3.40,29.5
"2009-10-10 01:03:00",1313692,14.08,65.95,3.045,0.767,8.18,101.2836,2.575,3.97,64.15,0,109.7,13.48,3.34,27.9
"2009-10-10 01:03:30",1313693,14.25,65.67,3.135,0.672,8.27,101.2576,2.508,3.924,64.12,0,109.7,13.48,3.27,27.7
"2009-10-10 01:04:00",1313694,14.66,66.5,2.951,0.829,8.3,101.2384,2.459,3.863,64.24,0,109.7,13.48,3.22,28.5
"2009-10-10 01:04:30",1313695,15.73,67.79,1.188,0.76,8.04,101.2096,2.386,3.8,64.5,0,109.7,13.48,3.15,29.8
"2009-10-10 01:05:00",1313696,16.51,68.9,3.863,0.55,8.04,101.1745,2.296,3.754,64.7,0,109.7,13.48,3.06,30.9
"2009-10-10 01:05:30",1313697,16.65,70.03,3.183,0.908,8.04,101.1412,2.211,3.688,64.84,0,109.7,13.48,2.97,32.0
"2009-10-10 01:06:00",1313698,16.87,68.71,3.309,0.787,8.18,101.1075,2.125,3.611,65.07,0,109.7,13.48,2.88,30.7
"2009-10-10 01:06:30",1313699,17.05,71.61,2.8,0.814,8.12,101.0708,2.031,3.533,65.25,0,109.7,13.48,2.79,33.6
"2009-10-10 01:07:00",1313700,16.74,68.34,3.184,0.822,8.42,101.0371,1.946,3.489,65.51,0,109.7,13.48,2.70,30.3
"2009-10-10 01:07:30",1313701,17.14,68.95,4.775,0.629,8.2,101.0013,1.854,3.394,66.06,0,109.7,13.48,2.61,30.9
"2009-10-10 01:08:00",1313702,17.26,68.35,3.839,0.881,8.43,100.9679,1.769,3.326,66.37,0,109.7,13.48,2.53,30.3
"2009-10-10 01:08:30",1313703,17.23,69.8,2.542,0.739,8.14,100.9346,1.684,3.214,66.56,0,109.7,13.48,2.44,31.8
"2009-10-10 01:09:00",1313704,17.25,69.03,2.717,0.808,8.12,100.8981,1.591,3.141,66.73,0,109.7,13.48,2.35,31.0
"2009-10-10 01:09:30",1313705,16.92,69.16,3.229,0.82,8.15,100.865,1.506,3.049,66.96,0,109.7,13.48,2.26,31.2
"2009-10-10 01:10:00",1313706,16.36,69.53,3.589,0.782,8.29,100.8367,1.434,2.974,67.24,0,109.7,13.48,2.19,31.5
"2009-10-10 01:10:30",1313707,15.51,73.15,3.506,0.598,8.33,100.8116,1.37,2.897,67.58,0,109.7,13.48,2.13,35.2
"2009-10-10 01:11:00",1313708,16,72.92,3.512,0.806,8.19,100.7813,1.293,2.844,67.82,0,109.7,13.48,2.05,34.9
"2009-10-10 01:11:30",1313709,16.64,69.39,4.185,0.81,7.958,100.7697,1.263,2.784,68.09,0,109.7,13.48,2.02,31.4
"2009-10-10 01:12:00",1313710,15.92,69.05,3.146,0.795,8.03,100.7465,1.204,2.715,68.42,0,109.7,13.49,1.96,31.1
"2009-10-10 01:12:30",1313711,15.95,68.85,2.928,0.844,7.992,100.7177,1.131,2.653,68.71,0,109.7,13.49,1.89,30.8
"2009-10-10 01:13:00",1313712,14.67,61.55,3.936,0.916,8.12,100.7098,1.11,2.605,69.24,0,109.7,13.49,1.87,23.5
"2009-10-10 01:13:30",1313713,14.18,62.24,4.174,0.61,8.03,100.6809,1.037,2.566,69.83,0,109.7,13.49,1.79,24.2
"2009-10-10 01:14:00",1313714,14.45,61.91,3.218,0.783,8.02,100.6736,1.018,2.5,70.23,0,109.7,13.49,1.77,23.9
"2009-10-10 01:14:30",1313715,14.03,58.68,3.9,0.814,7.737,100.6453,0.946,2.447,70.79,0,109.7,13.49,1.70,20.7
"2009-10-10 01:15:00",1313716,14.44,57.68,4.74,0.879,7.677,100.6374,0.926,2.42,71.4,0,109.7,13.49,1.68,19.7
"2009-10-10 01:15:30",1313717,14.61,55.48,3.935,0.788,7.448,100.6111,0.859,2.357,72.18,0,109.7,13.49,1.61,17.5
"2009-10-10 01:16:00",1313718,15.54,57.55,3.336,1.314,7.65,100.5879,0.8,2.295,72.58,0,109.7,13.49,1.55,19.5
"2009-10-10 01:16:30",1313719,16.54,53.72,2.93,0.565,7.199,100.5641,0.739,2.265,73.35,0,109.7,13.5,1.49,15.7
"2009-10-10 01:17:00",1313720,16.37,50.95,2.549,0.785,6.931,100.5245,0.638,2.198,74.23,0,109.7,13.5,1.39,13.0
"2009-10-10 01:17:30",1313721,16.65,53.37,3.094,0.743,6.961,100.479,0.522,2.115,75,0,109.7,13.5,1.28,15.4
"2009-10-10 01:18:00",1313722,16.9,54.95,4.004,0.567,6.883,100.427,0.389,2.037,75.64,0,109.7,13.5,1.14,17.0
"2009-10-10 01:18:30",1313723,18.23,55.55,3.806,0.56,6.123,100.3699,0.243,1.934,75.99,0,109.7,13.5,1.00,17.5
"2009-10-10 01:19:00",1313724,19.24,58.33,4.457,0.642,6.135,100.2907,0.042,1.812,76.05,0,109.7,13.5,0.79,20.3
"2009-10-10 01:19:30",1313725,18.21,64.55,3.146,0.768,6.36,100.2064,-0.173,1.644,76.76,0,109.7,13.5,0.58,26.6
"2009-10-10 01:20:00",1313726,17.26,69.57,3.51,0.789,6.818,100.1312,-0.365,1.475,77.63,0,109.7,13.5,0.39,31.6
"2009-10-10 01:20:30",1313727,16.96,72.4,3.398,0.605,6.585,100.0704,-0.52,1.325,78.39,0,109.7,13.5,0.23,34.4
"2009-10-10 01:21:00",1313728,16.67,73.31,3.024,0.938,6.519,100.0257,-0.634,1.188,79.13,0,109.7,13.5,0.12,35.3
"2009-10-10 01:21:30",1313729,16.68,73.77,3.274,0.679,6.406,99.97313,-0.768,1.03,79.66,0,109.7,13.5,-0.02,35.8
"2009-10-10 01:22:00",1313730,16.37,73.29,3.915,0.587,6.69,99.93636,-0.862,0.905,80.2,0,109.7,13.51,-0.11,35.3
"2009-10-10 01:22:30",1313731,15.99,75.24,3.431,0.674,6.462,99.90185,-0.95,0.81,80.8,0,109.7,13.51,-0.20,37.2
"2009-10-10 01:23:00",1313732,16.44,71.34,4.189,0.561,4.972,99.86931,-1.033,0.699,81.3,0,109.7,13.5,-0.28,33.3
"2009-10-10 01:23:30",1313733,16.04,68.74,4.369,0.837,5.187,99.81584,-1.169,0.594,81.1,0,109.6,13.5,-0.42,30.7
"2009-10-10 01:24:00",1313734,16.16,67.31,3.182,0.843,4.917,99.75701,-1.319,0.439,80.7,0,109.6,13.51,-0.57,29.3
"2009-10-10 01:24:30",1313735,16.7,65.48,2.344,0.715,4.423,99.68714,-1.497,0.293,80.3,0,109.6,13.5,-0.75,27.5
"2009-10-10 01:25:00",1313736,15.83,63.5,2.93,0.727,4.939,99.60906,-1.696,0.14,79.91,0,109.6,13.51,-0.95,25.5
"2009-10-10 01:25:30",1313737,16.15,62.6,3.018,0.653,4.825,99.53185,-1.893,-0.031,79.99,0,109.6,13.51,-1.15,24.6
"2009-10-10 01:26:00",1313738,17.65,58.26,3.638,0.837,4.99,99.45717,-2.083,-0.195,80.4,0,109.6,13.51,-1.34,20.3
"2009-10-10 01:26:30",1313739,18.38,57.54,3.74,0.429,5.107,99.38108,-2.277,-0.363,81,0,109.6,13.52,-1.53,19.5
"2009-10-10 01:27:00",1313740,18.3,55.59,3.899,0.654,5.243,99.31036,-2.457,-0.515,81.6,0,109.6,13.52,-1.71,17.6
"2009-10-10 01:27:30",1313741,18.18,53.39,3.145,0.85,5.261,99.2487,-2.614,-0.688,82.4,0,109.6,13.52,-1.87,15.4
"2009-10-10 01:28:00",1313742,17.3,52.1,3.9,0.869,5.302,99.19523,-2.751,-0.832,83,0,109.6,13.52,-2.01,14.1
"2009-10-10 01:28:30",1313743,16.5,50.5,4.079,0.873,5.122,99.13668,-2.9,-0.983,83.5,0,109.6,13.52,-2.16,12.5
"2009-10-10 01:29:00",1313744,16.28,53.91,4.109,0.685,5.208,99.09283,-3.011,-1.115,84,0,109.6,13.53,-2.27,15.9
"2009-10-10 01:29:30",1313745,15.96,54.81,3.176,0.93,5.002,99.05408,-3.11,-1.26,84.5,0,109.6,13.53,-2.37,16.8
"2009-10-10 01:30:00",1313746,14.72,55.58,3.435,0.862,5.064,99.01955,-3.198,-1.368,85,0,109.6,13.53,-2.46,17.6
"2009-10-10 01:30:30",1313747,15.19,55.33,2.692,0.894,4.8,98.99179,-3.269,-1.48,85.6,0,109.5,13.53,-2.53,17.3
"2009-10-10 01:31:00",1313748,14.69,58.45,3.359,1.156,4.795,98.96658,-3.333,-1.556,86,0,109.6,13.53,-2.59,20.5
"2009-10-10 01:31:30",1313749,15.1,59.14,3.694,1.12,4.624,98.94306,-3.393,-1.659,86.3,0,109.6,13.54,-2.65,21.1
"2009-10-10 01:32:00",1313750,15.37,58.98,3.775,0.747,4.613,98.92654,-3.435,-1.743,86.6,0,109.6,13.54,-2.70,21.0
"2009-10-10 01:32:30",1313751,15.9,58.84,4.148,1.179,4.478,98.89765,-3.509,-1.848,86.8,0,109.5,13.54,-2.77,20.8
"2009-10-10 01:33:00",1313752,15.89,61.72,4.674,0.737,4.599,98.87076,-3.577,-1.91,87,0,109.5,13.54,-2.84,23.7
"2009-10-10 01:33:30",1313753,16.14,62.78,3.28,0.849,4.258,98.84103,-3.653,-2.011,87.2,0,109.5,13.54,-2.91,24.8
"2009-10-10 01:34:00",1313754,15.48,60.82,4.199,1.023,4.436,98.81269,-3.725,-2.109,87.4,0,109.5,13.54,-2.99,22.8
"2009-10-10 01:34:30",1313755,16.14,62.74,3.882,0.766,4.457,98.78692,-3.791,-2.18,87.5,0,109.5,13.54,-3.05,24.7
"2009-10-10 01:35:00",1313756,15,60.18,4.791,1.039,4.452,98.76004,-3.859,-2.247,87.7,0,109.5,13.54,-3.12,22.2
"2009-10-10 01:35:30",1313757,15.26,59.72,4.114,0.702,4.402,98.73939,-3.912,-2.328,87.9,0,109.5,13.55,-3.17,21.7
"2009-10-10 01:36:00",1313758,15.98,58.72,3.833,0.693,4.561,98.70939,-3.988,-2.383,88,0,109.5,13.55,-3.25,20.7
"2009-10-10 01:36:30",1313759,16.38,56.81,3.722,0.639,4.165,98.67968,-4.064,-2.482,88.2,0,109.5,13.55,-3.33,18.8
"2009-10-10 01:37:00",1313760,16.48,57.8,3.045,0.816,4.169,98.65958,-4.115,-2.531,88.4,0,109.5,13.55,-3.38,19.8
"2009-10-10 01:37:30",1313761,17.84,59.37,2.792,0.855,4.008,98.63215,-4.185,-2.609,88.6,0,109.5,13.56,-3.45,21.4
"2009-10-10 01:38:00",1313762,18.12,59.06,3.496,0.675,4.381,98.60271,-4.26,-2.672,88.6,0,109.5,13.56,-3.52,21.1
"2009-10-10 01:38:30",1313763,17.56,57.96,3.066,1.103,4.235,98.57524,-4.33,-2.764,88.7,0,109.5,13.56,-3.59,20.0
"2009-10-10 01:39:00",1313764,16.29,59.36,4.149,0.762,4.239,98.5503,-4.393,-2.83,88.8,0,109.5,13.56,-3.66,21.4
"2009-10-10 01:39:30",1313765,16.1,59.66,4.032,0.782,4.252,98.54086,-4.417,-2.887,88.9,0,109.5,13.56,-3.68,21.7
"2009-10-10 01:40:00",1313766,16.92,61.64,3.528,0.778,4.3,98.52573,-4.456,-2.961,89,0,109.5,13.56,-3.72,23.6
"2009-10-10 01:40:30",1313767,16.23,59.06,3.624,1.058,4.295,98.5126,-4.489,-3.012,89.2,0,109.4,13.56,-3.75,21.1
"2009-10-10 01:41:00",1313768,16.26,61.69,4.344,0.974,4.253,98.5032,-4.513,-3.044,89.4,0,109.5,13.56,-3.78,23.7
"2009-10-10 01:41:30",1313769,16.62,64.75,4.158,0.749,4.162,98.50034,-4.521,-3.099,89.5,0,109.5,13.56,-3.78,26.8
"2009-10-10 01:42:00",1313770,17.21,61.6,4.028,0.616,4.291,98.47713,-4.58,-3.138,89.7,0,109.5,13.56,-3.84,23.6
"2009-10-10 01:42:30",1313771,17.03,59.4,4.174,1.025,4.326,98.47146,-4.594,-3.17,89.9,0,109.5,13.56,-3.86,21.4
"2009-10-10 01:43:00",1313772,16.1,59.28,4.439,1.291,4.315,98.46071,-4.621,-3.194,90.1,0,109.5,13.56,-3.89,21.3
"2009-10-10 01:43:30",1313773,16.57,59.02,4.452,1.011,4.264,98.43777,-4.68,-3.24,90.3,0,109.5,13.56,-3.94,21.0
"2009-10-10 01:44:00",1313774,16.34,60.6,4.722,0.722,4.536,98.4375,-4.681,-3.265,90.4,0,109.5,13.57,-3.94,22.6
"2009-10-10 01:44:30",1313775,16.07,59.34,3.683,0.869,4.393,98.43552,-4.686,-3.297,90.6,0,109.4,13.57,-3.95,21.3
"2009-10-10 01:45:00",1313776,14.68,54.98,4.549,0.728,4.186,98.41457,-4.739,-3.317,90.7,0,109.4,13.57,-4.00,17.0
"2009-10-10 01:45:30",1313777,14.47,54.73,4.235,0.709,4.265,98.40353,-4.767,-3.336,90.9,0,109.4,13.57,-4.03,16.7
"2009-10-10 01:46:00",1313778,14.47,55.42,4.319,0.592,4.207,98.40353,-4.767,-3.362,91,0,109.4,13.58,-4.03,17.4
"2009-10-10 01:46:30",1313779,14.72,57.2,4.01,0.675,4.09,98.39928,-4.778,-3.384,91.1,0,109.4,13.58,-4.04,19.2
"2009-10-10 01:47:00",1313780,14.43,58.27,3.519,0.896,4.108,98.38172,-4.823,-3.412,91.3,0,109.4,13.58,-4.09,20.3
"2009-10-10 01:47:30",1313781,14.94,58.8,4.037,0.751,3.939,98.37235,-4.846,-3.419,91.4,0,109.4,13.58,-4.11,20.8
"2009-10-10 01:48:00",1313782,14.72,59.45,3.146,1.273,3.869,98.37597,-4.837,-3.458,91.5,0,109.4,13.59,-4.10,21.5
"2009-10-10 01:48:30",1313783,14.98,63.5,2.142,0.578,3.674,98.38237,-4.821,-3.465,91.6,0,109.4,13.59,-4.09,25.5
"2009-10-10 01:49:00",1313784,14.4,59.6,2.864,0.895,3.775,98.3896,-4.803,-3.478,91.7,0,109.4,13.59,-4.07,21.6